Regional Weather Roundup
Issued by NWS

Home | Current Version | Previous Version | Text Only | Print | Product List | Glossary On
Versions: 1 2 3 4 5 6 7 8 9 10 11 12 13 14 15 16 17 18 19 20 21 22 23 24 25 26 27
000
ASUS44 KBMX 240710
RWRAL

ALABAMA REGIONAL WEATHER ROUNDUP
NATIONAL WEATHER SERVICE BIRMINGHAM AL
200 AM CDT SUN JUL 24 2016

NOTE: "FAIR" INDICATES FEW OR NO CLOUDS BELOW 12,000 FEET
WITH NO SIGNIFICANT WEATHER AND/OR OBSTRUCTIONS TO VISIBILITY.

THE REMARK "TC" DENOTES TEMPERATURE IN DEGREES CELSIUS.

ALZ001>011-014-016>018-020-240800-
NORTH ALABAMA

CITY           SKY/WX    TMP DP  RH WIND       PRES   REMARKS
MUSCLE SHOALS  CLOUDY    76  72  87 SE3       30.01S
HUNTSVILLE     CLEAR     77  70  79 SE3       30.01S
DECATUR        PTCLDY    74  73  97 NE3       30.01S
HALEYVILLE     FAIR      75  70  84 CALM      30.04F
GADSDEN        PTCLDY    73  73 100 CALM      30.02F
$$

ALZ012-013-022-023-030>036-040>044-240800-
WEST CENTRAL ALABAMA

CITY           SKY/WX    TMP DP  RH WIND       PRES   REMARKS
TUSCALOOSA     PTCLDY    78  77  96 NE3       29.97S
$$

ALZ015-024>027-033>036-040>044-240800-
CENTRAL ALABAMA

CITY           SKY/WX    TMP DP  RH WIND       PRES   REMARKS
BIRMINGHAM     MOCLDY    78  74  87 CALM      30.03S
MONTGOMERY     CLOUDY    79  73  82 CALM      29.99S
SHELBY CO ARPT CLOUDY    78  73  84 CALM      30.01S
MAXWELL AFB    CLOUDY    79  74  86 S2        29.98F
GREENVILLE     FAIR      77  72  84 CALM      29.99F
$$

ALZ019-021-028-029-037-038-045>048-240800-
EAST CENTRAL ALABAMA

CITY           SKY/WX    TMP DP  RH WIND       PRES   REMARKS
ANNISTON       CLOUDY    75  72  90 NE8       30.02F
ALEXANDER CITY CLOUDY    78  78 100 CALM      30.02S
AUBURN         CLOUDY    78  73  84 CALM      30.04F
$$

ALZ051>064-240800-
SOUTHWEST ALABAMA

CITY           SKY/WX    TMP DP  RH WIND       PRES   REMARKS
MOBILE         CLEAR     79  74  84 CALM      29.98F
BROOKLEY FIELD PTCLDY    77  76  96 CALM      29.98F
EVERGREEN      MOCLDY    75  73  93 CALM      29.99F
$$

ALZ049-050-065>069-240800-
SOUTHEAST ALABAMA

CITY           SKY/WX    TMP DP  RH WIND       PRES   REMARKS
DOTHAN         PTCLDY    76  73  91 CALM      30.04S
OZARK          PTCLDY    75  74  96 CALM      30.00S
TROY           PTCLDY    74  74 100 CALM      30.01F
EUFAULA        FAIR      77  74  90 CALM      30.00S
$$




USA.gov is the U.S. government's official web portal to all federal, state and local government web resources and services.